Vertical_Velocity
-4 6 -15 -12 -6 10 14 -0 -1 -5 -17 3 -2 -9 -4 -12 5 -7 -1 1 1 -2 13 2 3 2 2 2 6 -1 -0 1 -0 1 2 2 4 6 2 3 2 3 3 2
4 -33 -5 8 6 7 2 -1 -4 0 -7 3 -2 -18 3 -6 -11 -4 -1 -3 -2 0 -3 0 4 1 1 6 8 2 4 4 6 6 3 -0 4 4 4 2 2 2 2 1
-2 2 8 5 -1 2 3 2 2 -4 -4 -3 -1 -61 -16 9 -2 -6 -8 -1 -3 -6 -3 -3 -5 4 6 -7 -0 4 6 6 5 3 5 2 1 -2 -2 4 4 5 4 2
-10 36 -3 2 2 6 -0 6 6 4 11 -4 -0 -36 24 -14 -3 -3 3 -14 -3 2 1 -2 3 -2 -9 -1 2 7 -0 -6 -3 2 6 5 8 -1 6 11 6 2 2 6
-25 5 -3 -7 1 -4 -9 -1 4 7 -1 11 11 5 -17 -4 -0 -11 -13 0 6 9 9 8 1 2 9 -2 -3 9 10 7 3 -0 3 -11 -5 -13 -20 -7 4 4 2 1
7 6 1 2 10 -2 25 15 3 12 16 8 12 3 -85 1 -14 -3 -8 1 1 -5 1 4 11 3 6 -1 1 9 13 8 -3 -8 15 -7 -1 -4 -5 4 4 8 -1 4
8 -11 2 6 1 1 -1 15 1 7 10 -12 1 14 -67 2 3 -2 -5 -6 -3 -4 -5 2 -0 -3 4 -1 4 8 13 4 8 6 -3 -1 12 -5 -3 -1 0 8 5 2
-0 -7 8 -0 -34 -6 -9 2 -11 -4 -2 -8 7 -8 -24 1 -1 -2 -2 -8 -3 -2 -1 -3 7 -1 -0 5 5 5 13 2 8 21 9 -7 -1 2 -2 5 3 -7 -3 -2
-3 -10 2 -7 4 16 -8 -11 3 6 7 0 -3 4 0 2 -0 -1 -2 1 -7 -12 -8 -21 -4 6 11 2 -5 7 8 2 4 20 6 5 -3 3 -3 6 4 -2 -11 -13
-2 -6 10 -6 6 -0 -3 8 10 11 2 1 -2 -1 -9 2 1 -2 -1 2 9 2 0 2 -0 -3 -12 10 -4 -4 15 3 24 16 21 10 4 -20 -4 3 -2 -5 -1 14
10 13 -7 16 -2 -1 4 3 7 3 -1 -3 -2 -10 2 5 2 4 1 4 4 5 1 13 4 10 -10 -1 -4 15 -1 11 2 10 14 11 -2 -7 -7 14 12 6 4 3
24 7 -4 -4 1 4 1 4 19 3 -3 -0 1 -4 3 5 13 5 9 -3 -9 -8 -0 1 0 -5 -8 -4 -6 -1 1 -5 7 24 23 -0 -5 14 16 -1 -8 12 6 5
-3 10 6 9 16 3 2 -5 -11 18 4 -5 -2 -1 -6 -8 -6 -7 -11 -1 -16 -5 -12 -7 -11 -0 1 3 -8 -13 -9 9 -12 10 1 -7 -2 8 21 -3 -11 3 7 8
3 -6 4 -2 2 3 2 0 4 -2 6 3 -4 -3 0 -14 2 4 3 -3 -1 -6 -2 4 -20 1 5 -3 -3 3 -20 -8 -5 -4 -4 14 -15 34 14 6 2 -10 5 4
19 -11 11 1 1 2 -1 -1 -2 3 1 -0 -10 -3 -1 -2 -6 -8 1 -1 7 4 -23 6 18 -7 -12 -4 6 0 -0 15 2 7 5 8 12 8 10 4 -0 7 -5 2
13 4 5 -1 2 -4 1 -4 0 -7 2 -3 2 -24 5 4 -10 -3 -2 1 7 -9 -6 -8 -0 6 9 -3 -3 3 4 -2 1 8 4 -17 19 6 11 8 3 3 10 0
29 21 2 -7 2 5 11 -18 -6 2 1 2 -13 -9 7 -7 -9 3 -1 13 7 -5 -7 -1 -1 -5 4 9 0 1 -8 13 6 2 5 -0 -17 -22 7 10 3 1 3 10
-3 5 15 2 11 6 -4 -3 -7 -6 4 -5 1 1 2 -2 -2 -2 -3 -1 -4 -6 6 -2 -2 3 -2 -2 -2 6 -4 5 16 10 -2 1 4 -1 6 10 9 7 -9 8
4 8 7 -3 -2 2 -2 -5 -15 -19 -6 -1 2 2 6 2 8 3 -1 1 -3 -2 -7 -8 -2 -4 4 1 -2 -7 -2 1 3 5 1 4 2 4 7 6 10 2 -0 -1
3 9 10 9 -0 -4 -9 0 -1 4 -7 -5 2 4 -1 1 1 -1 -4 -6 2 2 -4 -4 -1 4 -4 -0 -5 -3 -6 -3 6 12 -0 4 -1 10 -6 -1 18 7 12 5
2 8 -2 1 2 1 11 7 24 -3 2 -9 -5 3 -1 6 5 1 8 0 -12 -7 -8 -3 -2 -6 -3 4 3 0 -1 9 10 -13 -1 0 2 -0 22 11 22 7 10 8
5 7 -0 5 3 1 -1 -4 10 -2 4 -2 3 0 7 -1 -13 6 11 -10 -8 -14 -11 -5 -8 -5 -4 -6 -3 -1 1 -1 -5 -0 3 4 -0 1 8 32 19 6 -1 4
3 5 5 7 15 11 16 6 -4 0 3 0 -7 -4 2 -5 14 -9 0 -9 -5 -5 -4 -1 -3 1 -1 -2 2 -4 -5 -7 -6 2 2 2 5 8 21 22 4 3 1 10
4 -2 -3 -2 6 4 -8 7 -7 2 4 7 9 -7 4 -5 -9 2 5 -2 1 -0 8 5 -3 -4 -7 -4 -6 -5 -2 2 6 2 2 1 3 -1 5 3 3 0 -5 12
6 1 -4 -7 -5 -9 -1 -0 2 1 -2 -5 2 -5 -6 0 1 3 2 -4 -1 3 -3 0 4 3 -0 1 5 -0 -2 -1 -2 -1 2 3 2 4 1 7 6 7 13 6
-3 3 -1 -10 1 -4 -1 -3 -3 14 -1 -12 3 5 -0 -6 -1 10 -2 -3 -1 1 2 -2 -8 2 1 -1 -2 -7 0 -1 1 4 4 0 2 0 1 11 3 2 3 0
Height
3051 3046 3035 3041 3044 3044 3045 3044 3039 3041 3048 3044 3037 3028 3032 3038 3036 3036 3040 3041 3042 3044 3051 3052 3055 3058 3061 3062 3063 3064 3066 3068 3070 3073 3074 3076 3078 3081 3083 3085 3088 3089 3091 3092
3041 3022 3032 3035 3039 3041 3039 3035 3032 3036 3041 3042 3032 3010 3020 3024 3026 3029 3032 3033 3034 3036 3039 3043 3047 3050 3052 3055 3057 3058 3059 3062 3064 3067 3070 3071 3073 3075 3078 3079 3081 3082 3084 3086
3020 3007 3026 3027 3028 3031 3027 3024 3029 3030 3035 3036 3031 2998 3009 3012 3014 3019 3021 3024 3026 3028 3031 3033 3036 3039 3041 3046 3048 3051 3054 3057 3059 3061 3065 3066 3067 3069 3071 3073 3075 3077 3078 3079
3010 3005 3014 3018 3015 3023 3019 3024 3023 3025 3030 3030 3032 3002 2999 3003 3005 3009 3012 3015 3016 3020 3022 3023 3026 3028 3031 3035 3038 3042 3046 3049 3053 3056 3056 3061 3062 3064 3067 3068 3068 3070 3071 3072
2988 2994 2999 3003 3001 3014 3012 3022 3021 3020 3021 3025 3020 3023 2971 2994 2995 3002 3005 3006 3009 3010 3011 3012 3016 3020 3022 3024 3029 3032 3036 3039 3042 3047 3049 3051 3051 3050 3054 3060 3063 3064 3066 3068
2984 2993 2992 2993 3002 3005 3013 3015 3018 3017 3015 3014 3001 3016 2975 2990 2989 2987 2993 2996 2998 3000 3000 3002 3005 3007 3011 3014 3018 3021 3025 3029 3028 3036 3041 3041 3043 3046 3048 3051 3054 3057 3060 3063
2977 2976 2983 2991 2992 2996 3004 3010 3010 3008 3004 2994 2997 3003 2972 2978 2980 2982 2986 2990 2991 2990 2991 2993 2995 3000 3002 3005 3010 3014 3014 3018 3022 3023 3029 3033 3036 3035 3040 3044 3048 3052 3054 3058
2970 2969 2972 2976 2975 2982 2985 2994 2993 2989 2990 2986 2991 2983 2976 2974 2974 2975 2976 2978 2981 2983 2982 2986 2988 2989 2993 2994 2999 3003 3006 3007 3012 3016 3018 3023 3026 3027 3030 3036 3039 3044 3048 3050
2961 2963 2963 2967 2971 2974 2976 2980 2972 2983 2982 2986 2977 2973 2971 2967 2966 2967 2970 2971 2973 2975 2980 2980 2982 2980 2982 2983 2987 2992 2995 2998 3003 3010 3012 3014 3016 3016 3022 3028 3031 3034 3036 3041
2959 2957 2955 2960 2965 2964 2966 2972 2975 2975 2975 2971 2964 2964 2960 2959 2961 2961 2962 2966 2964 2966 2970 2969 2971 2972 2974 2972 2974 2979 2982 2987 2997 3000 3004 3004 3006 3008 3014 3020 3023 3024 3027 3032
2954 2953 2948 2952 2950 2954 2957 2960 2961 2962 2965 2960 2964 2957 2953 2954 2957 2955 2956 2961 2960 2962 2964 2965 2967 2965 2965 2967 2968 2972 2972 2977 2981 2992 2994 2995 2999 3002 3007 3013 3015 3016 3020 3025
2944 2941 2935 2940 2943 2944 2947 2947 2949 2948 2950 2952 2950 2951 2951 2953 2952 2950 2951 2952 2955 2959 2959 2960 2961 2963 2965 2965 2965 2967 2968 2970 2975 2980 2985 2988 2991 2995 2996 3002 3009 3011 3015 3016
2940 2930 2921 2926 2932 2935 2936 2938 2941 2940 2937 2940 2945 2945 2948 2951 2953 2951 2953 2952 2954 2952 2953 2955 2958 2956 2958 2960 2961 2965 2963 2967 2966 2973 2976 2977 2980 2985 2991 2994 2996 3005 3009 3009
2929 2929 2924 2925 2926 2926 2929 2928 2932 2937 2934 2925 2932 2939 2945 2949 2949 2950 2951 2950 2948 2951 2951 2951 2951 2954 2954 2956 2954 2958 2959 2963 2965 2969 2969 2971 2973 2979 2983 2985 2989 2996 3001 3003
2916 2917 2918 2917 2917 2918 2921 2923 2927 2930 2929 2930 2932 2935 2934 2939 2945 2947 2947 2943 2942 2942 2946 2948 2944 2947 2948 2950 2949 2951 2950 2952 2957 2959 2963 2965 2966 2970 2973 2975 2979 2985 2990 2995
2902 2904 2907 2904 2906 2910 2914 2919 2919 2923 2927 2926 2929 2926 2933 2937 2940 2940 2942 2939 2936 2936 2938 2941 2941 2941 2940 2941 2945 2947 2949 2949 2951 2952 2953 2955 2957 2961 2962 2963 2970 2975 2980 2985
2902 2895 2897 2897 2900 2906 2906 2902 2910 2913 2915 2918 2921 2918 2924 2929 2932 2934 2934 2934 2927 2930 2931 2932 2934 2936 2937 2934 2936 2938 2942 2945 2944 2944 2944 2946 2948 2952 2954 2956 2961 2965 2970 2976
2900 2899 2893 2893 2897 2896 2892 2894 2899 2903 2906 2911 2911 2914 2920 2924 2923 2923 2928 2927 2922 2924 2922 2925 2929 2930 2930 2929 2929 2929 2930 2934 2933 2933 2934 2937 2940 2941 2944 2947 2953 2955 2959 2965
2894 2895 2895 2892 2892 2892 2891 2891 2893 2896 2901 2906 2908 2911 2915 2917 2916 2917 2919 2916 2917 2918 2917 2919 2922 2923 2920 2919 2920 2921 2921 2923 2924 2921 2925 2929 2931 2934 2937 2938 2940 2945 2948 2953
2885 2888 2892 2889 2887 2888 2886 2890 2892 2896 2898 2902 2905 2908 2909 2910 2910 2912 2909 2909 2911 2909 2910 2911 2913 2912 2911 2909 2911 2911 2911 2912 2912 2909 2914 2918 2920 2920 2924 2928 2931 2936 2938 2946
2884 2883 2883 2884 2881 2882 2884 2885 2890 2889 2898 2898 2903 2904 2904 2906 2906 2906 2904 2900 2905 2904 2908 2906 2905 2903 2901 2900 2899 2900 2899 2899 2898 2899 2902 2905 2908 2911 2911 2916 2920 2926 2930 2939
2881 2880 2879 2882 2882 2881 2880 2883 2890 2890 2892 2892 2898 2898 2898 2898 2902 2902 2900 2896 2901 2903 2900 2898 2896 2896 2895 2893 2891 2889 2887 2885 2884 2887 2890 2894 2898 2900 2903 2907 2912 2921 2927 2935
2884 2882 2880 2879 2880 2878 2877 2880 2883 2885 2889 2892 2892 2895 2895 2897 2897 2897 2896 2898 2899 2898 2895 2893 2891 2890 2886 2884 2881 2877 2876 2875 2875 2878 2881 2884 2888 2891 2892 2901 2911 2917 2924 2931
2885 2883 2881 2880 2881 2879 2878 2880 2883 2886 2887 2888 2890 2890 2893 2895 2894 2897 2895 2897 2896 2893 2890 2888 2888 2887 2883 2879 2875 2871 2867 2865 2865 2867 2869 2873 2878 2883 2889 2898 2905 2914 2921 2928
2884 2883 2882 2882 2881 2879 2879 2880 2882 2883 2882 2884 2887 2888 2891 2892 2893 2894 2893 2895 2894 2890 2887 2887 2887 2886 2882 2878 2875 2872 2869 2865 2864 2863 2864 2868 2873 2880 2889 2896 2904 2912 2920 2927
2878 2879 2879 2878 2880 2880 2879 2879 2880 2877 2878 2882 2887 2889 2889 2890 2891 2892 2892 2893 2892 2890 2889 2887 2886 2883 2882 2880 2877 2875 2872 2871 2871 2870 2870 2872 2875 2883 2889 2896 2903 2909 2915 2920